Tabellarische Ansicht des 14.11.2019


Die einzelnen Werte des Tages

Uhrzeit Temperatur Luftdruck Luftfeuchte Wind Hi-Wind Taupunkt THW Index Wind Chill Heat Index Solar- strahlung Regen

00:00

4.6 C

999.5 hpa

90 %

9.7 km/h aus 116

16.1 km/h aus SSE

3.1 C

2.2 C

2.2 C

4.5 C

0 W/m

0.00 mm

00:05

4.6 C

999.5 hpa

90 %

11.3 km/h aus 70

14.5 km/h aus SSE

3.1 C

1.9 C

1.9 C

4.6 C

0 W/m

0.00 mm

00:10

4.6 C

999.5 hpa

90 %

9.7 km/h aus 115

12.9 km/h aus SSE

3.1 C

2.2 C

2.2 C

4.5 C

0 W/m

0.00 mm

00:15

4.5 C

999.5 hpa

90 %

9.7 km/h aus 112

12.9 km/h aus SSE

3.0 C

2.1 C

2.2 C

4.4 C

0 W/m

0.00 mm

00:20

4.4 C

999.5 hpa

90 %

9.7 km/h aus 116

11.3 km/h aus SSE

2.9 C

2.1 C

2.1 C

4.4 C

0 W/m

0.00 mm

00:25

4.4 C

999.5 hpa

90 %

9.7 km/h aus 116

11.3 km/h aus SE

2.9 C

1.9 C

2.0 C

4.3 C

0 W/m

0.00 mm

00:30

4.3 C

999.5 hpa

90 %

9.7 km/h aus 116

11.3 km/h aus SE

2.8 C

1.8 C

1.9 C

4.2 C

0 W/m

0.00 mm

00:35

4.2 C

999.5 hpa

90 %

9.7 km/h aus 117

11.3 km/h aus SE

2.7 C

1.8 C

1.8 C

4.2 C

0 W/m

0.00 mm

00:40

4.1 C

999.5 hpa

90 %

9.7 km/h aus 117

16.1 km/h aus SE

2.6 C

1.6 C

1.7 C

4.1 C

0 W/m

0.00 mm

00:45

4.1 C

999.5 hpa

90 %

8.0 km/h aus 115

12.9 km/h aus SE

2.6 C

2.0 C

2.1 C

4.0 C

0 W/m

0.00 mm

00:50

4.0 C

999.5 hpa

90 %

8.0 km/h aus 114

12.9 km/h aus ESE

2.5 C

1.9 C

1.9 C

3.9 C

0 W/m

0.00 mm

00:55

3.9 C

999.5 hpa

90 %

9.7 km/h aus 116

16.1 km/h aus SE

2.5 C

1.4 C

1.5 C

3.9 C

0 W/m

0.00 mm

01:00

3.9 C

999.7 hpa

90 %

8.0 km/h aus 117

11.3 km/h aus ESE

2.5 C

1.8 C

1.9 C

3.9 C

0 W/m

0.00 mm

01:05

3.9 C

999.7 hpa

90 %

8.0 km/h aus 116

9.7 km/h aus SE

2.5 C

1.8 C

1.9 C

3.9 C

0 W/m

0.00 mm

01:10

3.9 C

999.7 hpa

90 %

8.0 km/h aus 117

11.3 km/h aus SE

2.4 C

1.8 C

1.8 C

3.8 C

0 W/m

0.00 mm

01:15

3.8 C

999.8 hpa

90 %

8.0 km/h aus 116

14.5 km/h aus SE

2.3 C

1.7 C

1.8 C

3.8 C

0 W/m

0.00 mm

01:20

3.8 C

999.8 hpa

90 %

9.7 km/h aus 114

16.1 km/h aus SE

2.3 C

1.2 C

1.3 C

3.7 C

0 W/m

0.00 mm

01:25

3.8 C

999.8 hpa

91 %

12.9 km/h aus 114

17.7 km/h aus SE

2.4 C

0.6 C

0.6 C

3.7 C

0 W/m

0.00 mm

01:30

3.8 C

999.9 hpa

91 %

16.1 km/h aus 116

20.9 km/h aus SE

2.5 C

0.1 C

0.2 C

3.8 C

0 W/m

0.00 mm

01:35

3.8 C

999.9 hpa

91 %

16.1 km/h aus 118

19.3 km/h aus ESE

2.5 C

0.1 C

0.2 C

3.8 C

0 W/m

0.00 mm

01:40

3.9 C

999.9 hpa

91 %

14.5 km/h aus 117

19.3 km/h aus ESE

2.6 C

0.4 C

0.5 C

3.8 C

0 W/m

0.00 mm

01:45

3.8 C

999.9 hpa

91 %

12.9 km/h aus 117

17.7 km/h aus ESE

2.5 C

0.6 C

0.7 C

3.8 C

0 W/m

0.00 mm

01:50

3.8 C

999.9 hpa

91 %

12.9 km/h aus 117

19.3 km/h aus ESE

2.4 C

0.6 C

0.6 C

3.7 C

0 W/m

0.00 mm

01:55

3.7 C

999.9 hpa

91 %

12.9 km/h aus 114

17.7 km/h aus SE

2.4 C

0.5 C

0.6 C

3.7 C

0 W/m

0.00 mm

02:00

3.7 C

999.9 hpa

91 %

11.3 km/h aus 114

16.1 km/h aus SE

2.3 C

0.8 C

0.8 C

3.6 C

0 W/m

0.00 mm

02:05

3.6 C

999.9 hpa

91 %

9.7 km/h aus 117

12.9 km/h aus SE

2.3 C

1.1 C

1.1 C

3.6 C

0 W/m

0.00 mm

02:10

3.6 C

999.9 hpa

91 %

9.7 km/h aus 117

16.1 km/h aus SE

2.2 C

1.0 C

1.1 C

3.5 C

0 W/m

0.00 mm

02:15

3.6 C

999.9 hpa

91 %

8.0 km/h aus 117

12.9 km/h aus SE

2.2 C

1.4 C

1.4 C

3.5 C

0 W/m

0.00 mm

02:20

3.6 C

999.9 hpa

91 %

6.4 km/h aus 117

11.3 km/h aus SE

2.2 C

1.9 C

1.9 C

3.5 C

0 W/m

0.00 mm

02:25

3.5 C

999.9 hpa

91 %

6.4 km/h aus 117

9.7 km/h aus SE

2.2 C

1.8 C

1.9 C

3.4 C

0 W/m

0.00 mm

02:30

3.5 C

999.7 hpa

91 %

6.4 km/h aus 114

11.3 km/h aus SE

2.2 C

1.8 C

1.9 C

3.4 C

0 W/m

0.00 mm

02:35

3.4 C

999.7 hpa

91 %

4.8 km/h aus 114

9.7 km/h aus ESE

2.1 C

2.3 C

2.3 C

3.3 C

0 W/m

0.00 mm

02:40

3.3 C

999.7 hpa

91 %

4.8 km/h aus 118

9.7 km/h aus SE

2.0 C

2.2 C

2.3 C

3.3 C

0 W/m

0.00 mm

02:45

3.3 C

999.8 hpa

91 %

6.4 km/h aus 117

12.9 km/h aus ESE

2.0 C

1.6 C

1.7 C

3.3 C

0 W/m

0.00 mm

02:50

3.3 C

999.8 hpa

91 %

4.8 km/h aus 116

11.3 km/h aus ESE

1.9 C

2.2 C

2.2 C

3.2 C

0 W/m

0.00 mm

02:55

3.2 C

999.8 hpa

91 %

3.2 km/h aus 117

8.0 km/h aus ESE

1.9 C

2.9 C

2.9 C

3.2 C

0 W/m

0.00 mm

03:00

3.2 C

999.7 hpa

91 %

4.8 km/h aus 117

8.0 km/h aus ESE

1.9 C

2.1 C

2.2 C

3.2 C

0 W/m

0.00 mm

03:05

3.2 C

999.7 hpa

91 %

3.2 km/h aus 113

6.4 km/h aus ESE

1.8 C

2.8 C

2.9 C

3.1 C

0 W/m

0.00 mm

03:10

3.2 C

999.7 hpa

91 %

3.2 km/h aus 115

8.0 km/h aus E

1.8 C

2.8 C

2.9 C

3.1 C

0 W/m

0.00 mm

03:15

3.2 C

999.5 hpa

91 %

4.8 km/h aus 115

8.0 km/h aus ESE

1.8 C

2.1 C

2.1 C

3.1 C

0 W/m

0.00 mm

03:20

3.2 C

999.5 hpa

92 %

6.4 km/h aus 117

11.3 km/h aus E

2.0 C

1.5 C

1.6 C

3.2 C

0 W/m

0.00 mm

03:25

3.3 C

999.5 hpa

92 %

3.2 km/h aus 117

9.7 km/h aus ENE

2.1 C

3.0 C

3.1 C

3.2 C

0 W/m

0.00 mm

03:30

3.3 C

999.6 hpa

92 %

3.2 km/h aus 117

6.4 km/h aus E

2.1 C

3.0 C

3.1 C

3.2 C

0 W/m

0.00 mm

03:35

3.3 C

999.6 hpa

92 %

4.8 km/h aus 116

8.0 km/h aus E

2.1 C

2.2 C

2.2 C

3.2 C

0 W/m

0.00 mm

03:40

3.2 C

999.6 hpa

92 %

4.8 km/h aus 114

8.0 km/h aus ENE

2.0 C

2.1 C

2.2 C

3.2 C

0 W/m

0.00 mm

03:45

3.2 C

999.8 hpa

92 %

3.2 km/h aus 114

8.0 km/h aus E

2.0 C

2.9 C

2.9 C

3.2 C

0 W/m

0.00 mm

03:50

3.3 C

999.8 hpa

92 %

4.8 km/h aus 117

11.3 km/h aus ESE

2.1 C

2.2 C

2.2 C

3.2 C

0 W/m

0.00 mm

03:55

3.3 C

999.8 hpa

92 %

6.4 km/h aus 116

9.7 km/h aus ENE

2.2 C

1.6 C

1.7 C

3.3 C

0 W/m

0.00 mm

04:00

3.4 C

999.8 hpa

92 %

6.4 km/h aus 116

11.3 km/h aus ENE

2.2 C

1.7 C

1.7 C

3.3 C

0 W/m

0.00 mm

04:05

3.4 C

999.8 hpa

92 %

9.7 km/h aus 116

16.1 km/h aus ESE

2.2 C

0.8 C

0.8 C

3.3 C

0 W/m

0.00 mm

04:10

3.5 C

999.8 hpa

92 %

9.7 km/h aus 117

16.1 km/h aus E

2.3 C

0.9 C

0.9 C

3.4 C

0 W/m

0.00 mm

04:15

3.4 C

999.7 hpa

92 %

6.4 km/h aus 116

11.3 km/h aus ESE

2.3 C

1.7 C

1.8 C

3.4 C

0 W/m

0.00 mm

04:20

3.4 C

999.7 hpa

91 %

8.0 km/h aus 114

17.7 km/h aus ESE

2.1 C

1.3 C

1.3 C

3.4 C

0 W/m

0.00 mm

04:25

3.5 C

999.7 hpa

91 %

9.7 km/h aus 114

17.7 km/h aus SE

2.2 C

0.9 C

0.9 C

3.4 C

0 W/m

0.00 mm

04:30

3.5 C

999.8 hpa

91 %

8.0 km/h aus 116

16.1 km/h aus ESE

2.2 C

1.3 C

1.4 C

3.4 C

0 W/m

0.00 mm

04:35

3.5 C

999.8 hpa

91 %

8.0 km/h aus 117

14.5 km/h aus SE

2.2 C

1.3 C

1.4 C

3.4 C

0 W/m

0.00 mm

04:40

3.5 C

999.8 hpa

91 %

9.7 km/h aus 116

16.1 km/h aus SE

2.2 C

0.9 C

0.9 C

3.4 C

0 W/m

0.00 mm

04:45

3.5 C

999.9 hpa

91 %

8.0 km/h aus 117

16.1 km/h aus ESE

2.2 C

1.3 C

1.4 C

3.4 C

0 W/m

0.00 mm

04:50

3.5 C

999.9 hpa

91 %

6.4 km/h aus 117

9.7 km/h aus ESE

2.2 C

1.8 C

1.9 C

3.4 C

0 W/m

0.00 mm

04:55

3.5 C

999.9 hpa

91 %

8.0 km/h aus 114

14.5 km/h aus ESE

2.2 C

1.3 C

1.4 C

3.4 C

0 W/m

0.00 mm

05:00

3.5 C

999.9 hpa

91 %

9.7 km/h aus 114

16.1 km/h aus ESE

2.2 C

0.9 C

0.9 C

3.4 C

0 W/m

0.00 mm

05:05

3.4 C

999.9 hpa

91 %

9.7 km/h aus 117

16.1 km/h aus SE

2.1 C

0.8 C

0.9 C

3.4 C

0 W/m

0.00 mm

05:10

3.4 C

999.9 hpa

91 %

8.0 km/h aus 117

11.3 km/h aus ESE

2.1 C

1.3 C

1.3 C

3.4 C

0 W/m

0.00 mm

05:15

3.4 C

1000.0 hpa

90 %

8.0 km/h aus 117

14.5 km/h aus ESE

2.0 C

1.3 C

1.3 C

3.4 C

0 W/m

0.00 mm

05:20

3.4 C

1000.0 hpa

90 %

8.0 km/h aus 117

16.1 km/h aus ESE

2.0 C

1.3 C

1.3 C

3.4 C

0 W/m

0.00 mm

05:25

3.4 C

1000.0 hpa

90 %

8.0 km/h aus 116

14.5 km/h aus ESE

1.9 C

1.2 C

1.2 C

3.3 C

0 W/m

0.00 mm

05:30

3.4 C

1000.0 hpa

90 %

8.0 km/h aus 114

16.1 km/h aus ESE

1.9 C

1.2 C

1.2 C

3.3 C

0 W/m

0.00 mm

05:35

3.4 C

1000.0 hpa

90 %

6.4 km/h aus 114

16.1 km/h aus ESE

1.9 C

1.7 C

1.7 C

3.3 C

0 W/m

0.00 mm

05:40

3.3 C

1000.0 hpa

90 %

6.4 km/h aus 117

16.1 km/h aus E

1.8 C

1.6 C

1.7 C

3.3 C

0 W/m

0.00 mm

05:45

3.3 C

1000.0 hpa

90 %

8.0 km/h aus 116

14.5 km/h aus ESE

1.8 C

1.1 C

1.2 C

3.3 C

0 W/m

0.00 mm

05:50

3.3 C

1000.0 hpa

90 %

6.4 km/h aus 117

11.3 km/h aus E

1.8 C

1.6 C

1.7 C

3.3 C

0 W/m

0.00 mm

05:55

3.3 C

1000.0 hpa

90 %

3.2 km/h aus 116

9.7 km/h aus E

1.8 C

3.0 C

3.1 C

3.2 C

0 W/m

0.00 mm

06:00

3.3 C

1000.0 hpa

90 %

3.2 km/h aus 117

6.4 km/h aus E

1.8 C

3.0 C

3.1 C

3.2 C

0 W/m

0.00 mm

06:05

3.2 C

1000.0 hpa

90 %

3.2 km/h aus 114

8.0 km/h aus ENE

1.7 C

2.9 C

2.9 C

3.2 C

0 W/m

0.00 mm

06:10

3.2 C

1000.0 hpa

90 %

3.2 km/h aus 113

8.0 km/h aus E

1.7 C

2.8 C

2.9 C

3.1 C

0 W/m

0.00 mm

06:15

3.1 C

1000.1 hpa

90 %

1.6 km/h aus 116

8.0 km/h aus E

1.6 C

3.1 C

3.1 C

3.1 C

0 W/m

0.00 mm

06:20

3.1 C

1000.1 hpa

90 %

0.0 km/h aus 116

6.4 km/h aus ESE

1.6 C

3.1 C

3.1 C

3.1 C

0 W/m

0.00 mm

06:25

3.1 C

1000.1 hpa

90 %

0.0 km/h aus 117

0.0 km/h aus ---

1.6 C

3.0 C

3.1 C

3.0 C

0 W/m

0.00 mm

06:30

2.9 C

1000.3 hpa

90 %

0.0 km/h aus 117

1.6 km/h aus E

1.5 C

2.9 C

2.9 C

2.9 C

0 W/m

0.00 mm

06:35

2.8 C

1000.3 hpa

90 %

0.0 km/h aus 117

1.6 km/h aus E

1.4 C

2.8 C

2.8 C

2.8 C

0 W/m

0.00 mm

06:40

2.8 C

1000.3 hpa

90 %

0.0 km/h aus 115

4.8 km/h aus E

1.3 C

2.7 C

2.8 C

2.7 C

0 W/m

0.00 mm

06:45

2.7 C

1000.5 hpa

89 %

1.6 km/h aus 115

6.4 km/h aus SE

1.0 C

2.6 C

2.7 C

2.6 C

0 W/m

0.00 mm

06:50

2.6 C

1000.5 hpa

90 %

8.0 km/h aus 114

16.1 km/h aus SE

1.1 C

0.2 C

0.3 C

2.5 C

0 W/m

0.00 mm

06:55

2.7 C

1000.5 hpa

90 %

12.9 km/h aus 117

19.3 km/h aus SSE

1.2 C

-0.8 C

-0.7 C

2.6 C

0 W/m

0.00 mm

07:00

2.8 C

1000.6 hpa

91 %

14.5 km/h aus 117

20.9 km/h aus SE

1.5 C

-0.9 C

-0.8 C

2.8 C

0 W/m

0.00 mm

07:05

2.9 C

1000.6 hpa

91 %

16.1 km/h aus 118

24.1 km/h aus SE

1.6 C

-1.0 C

-0.9 C

2.9 C

0 W/m

0.00 mm

07:10

3.1 C

1000.6 hpa

91 %

14.5 km/h aus 117

22.5 km/h aus SE

1.7 C

-0.6 C

-0.6 C

3.0 C

0 W/m

0.00 mm

07:15

3.1 C

1001.0 hpa

91 %

11.3 km/h aus 116

17.7 km/h aus SE

1.7 C

0.0 C

0.1 C

3.0 C

0 W/m

0.00 mm

07:20

3.1 C

1001.0 hpa

91 %

11.3 km/h aus 115

16.1 km/h aus SE

1.8 C

0.1 C

0.1 C

3.1 C

0 W/m

0.00 mm

07:25

3.1 C

1001.0 hpa

91 %

9.7 km/h aus 113

14.5 km/h aus SSE

1.7 C

0.4 C

0.4 C

3.0 C

1 W/m

0.00 mm

07:30

3.1 C

1001.0 hpa

91 %

9.7 km/h aus 116

16.1 km/h aus SSE

1.7 C

0.4 C

0.4 C

3.0 C

5 W/m

0.00 mm

07:35

3.1 C

1001.0 hpa

91 %

6.4 km/h aus 116

12.9 km/h aus SE

1.7 C

1.3 C

1.3 C

3.0 C

7 W/m

0.00 mm

07:40

3.1 C

1001.0 hpa

91 %

4.8 km/h aus 117

8.0 km/h aus ESE

1.7 C

1.9 C

1.9 C

3.0 C

9 W/m

0.00 mm

07:45

3.0 C

1001.3 hpa

90 %

3.2 km/h aus 117

6.4 km/h aus ENE

1.5 C

2.7 C

2.7 C

2.9 C

11 W/m

0.00 mm

07:50

3.0 C

1001.3 hpa

90 %

4.8 km/h aus 116

6.4 km/h aus ENE

1.5 C

1.8 C

1.9 C

2.9 C

13 W/m

0.00 mm

07:55

2.9 C

1001.3 hpa

90 %

4.8 km/h aus 115

8.0 km/h aus ENE

1.4 C

1.7 C

1.8 C

2.8 C

17 W/m

0.00 mm

08:00

2.8 C

1001.5 hpa

90 %

4.8 km/h aus 113

8.0 km/h aus ENE

1.4 C

1.7 C

1.7 C

2.8 C

19 W/m

0.00 mm

08:05

2.8 C

1001.5 hpa

90 %

3.2 km/h aus 114

6.4 km/h aus E

1.4 C

2.5 C

2.6 C

2.8 C

23 W/m

0.00 mm

08:10

2.8 C

1001.5 hpa

90 %

1.6 km/h aus 118

4.8 km/h aus ESE

1.3 C

2.7 C

2.8 C

2.7 C

25 W/m

0.00 mm

08:15

2.8 C

1001.6 hpa

90 %

1.6 km/h aus 117

6.4 km/h aus ESE

1.3 C

2.7 C

2.8 C

2.7 C

26 W/m

0.00 mm

08:20

2.7 C

1001.6 hpa

90 %

4.8 km/h aus 117

6.4 km/h aus SE

1.2 C

1.6 C

1.6 C

2.7 C

31 W/m

0.00 mm

08:25

2.7 C

1001.6 hpa

90 %

8.0 km/h aus 117

12.9 km/h aus SE

1.2 C

0.4 C

0.4 C

2.7 C

35 W/m

0.00 mm

08:30

2.8 C

1001.9 hpa

91 %

14.5 km/h aus 116

19.3 km/h aus SSE

1.5 C

-0.9 C

-0.9 C

2.7 C

37 W/m

0.00 mm

08:35

3.1 C

1001.9 hpa

91 %

14.5 km/h aus 114

22.5 km/h aus SE

1.7 C

-0.6 C

-0.6 C

3.0 C

47 W/m

0.00 mm

08:40

3.3 C

1001.9 hpa

91 %

16.1 km/h aus 112

22.5 km/h aus SE

2.0 C

-0.5 C

-0.4 C

3.3 C

58 W/m

0.00 mm

08:45

3.6 C

1002.1 hpa

91 %

16.1 km/h aus 117

20.9 km/h aus SSE

2.2 C

-0.2 C

-0.2 C

3.5 C

50 W/m

0.00 mm

08:50

3.9 C

1002.1 hpa

90 %

16.1 km/h aus 116

22.5 km/h aus SE

2.5 C

0.2 C

0.3 C

3.9 C

80 W/m

0.00 mm

08:55

4.6 C

1002.1 hpa

88 %

12.9 km/h aus 117

20.9 km/h aus ESE

2.7 C

1.5 C

1.6 C

4.5 C

105 W/m

0.00 mm

09:00

5.0 C

1002.1 hpa

86 %

9.7 km/h aus 117

22.5 km/h aus SE

2.9 C

2.6 C

2.7 C

4.9 C

125 W/m

0.00 mm

09:05

5.2 C

1002.1 hpa

85 %

6.4 km/h aus 115

11.3 km/h aus E

2.9 C

3.7 C

3.8 C

5.1 C

138 W/m

0.00 mm

09:10

5.3 C

1002.1 hpa

84 %

8.0 km/h aus 114

14.5 km/h aus SE

2.8 C

3.3 C

3.4 C

5.2 C

106 W/m

0.00 mm

09:15

5.3 C

1002.1 hpa

84 %

8.0 km/h aus 116

16.1 km/h aus SE

2.8 C

3.3 C

3.4 C

5.2 C

104 W/m

0.00 mm

09:20

5.2 C

1002.1 hpa

84 %

8.0 km/h aus 116

16.1 km/h aus SE

2.7 C

3.3 C

3.4 C

5.1 C

113 W/m

0.00 mm

09:25

5.3 C

1002.1 hpa

84 %

4.8 km/h aus 116

8.0 km/h aus ESE

2.8 C

4.4 C

4.5 C

5.2 C

112 W/m

0.00 mm

09:30

5.3 C

1002.3 hpa

84 %

4.8 km/h aus 117

6.4 km/h aus E

2.8 C

4.4 C

4.6 C

5.2 C

133 W/m

0.00 mm

09:35

5.4 C

1002.3 hpa

83 %

4.8 km/h aus 116

14.5 km/h aus E

2.7 C

4.5 C

4.6 C

5.3 C

128 W/m

0.00 mm

09:40

5.5 C

1002.3 hpa

83 %

6.4 km/h aus 113

11.3 km/h aus ESE

2.8 C

4.1 C

4.2 C

5.4 C

145 W/m

0.00 mm

09:45

5.6 C

1002.4 hpa

83 %

6.4 km/h aus 115

9.7 km/h aus ENE

2.9 C

4.1 C

4.2 C

5.4 C

122 W/m

0.00 mm

09:50

5.6 C

1002.4 hpa

82 %

4.8 km/h aus 116

8.0 km/h aus ENE

2.7 C

4.6 C

4.8 C

5.4 C

125 W/m

0.00 mm

09:55

5.6 C

1002.4 hpa

83 %

4.8 km/h aus 117

8.0 km/h aus ENE

2.9 C

4.7 C

4.8 C

5.5 C

127 W/m

0.00 mm

10:00

5.7 C

1002.5 hpa

84 %

3.2 km/h aus 116

6.4 km/h aus ESE

3.2 C

5.6 C

5.7 C

5.6 C

140 W/m

0.00 mm

10:05

5.7 C

1002.5 hpa

83 %

6.4 km/h aus 117

11.3 km/h aus ESE

3.0 C

4.2 C

4.3 C

5.6 C

132 W/m

0.00 mm

10:10

5.7 C

1002.5 hpa

83 %

6.4 km/h aus 114

9.7 km/h aus E

3.1 C

4.3 C

4.4 C

5.6 C

132 W/m

0.00 mm

10:15

5.8 C

1002.5 hpa

83 %

3.2 km/h aus 116

6.4 km/h aus ESE

3.1 C

5.7 C

5.8 C

5.7 C

148 W/m

0.00 mm

10:20

5.9 C

1002.5 hpa

83 %

4.8 km/h aus 118

9.7 km/h aus SE

3.2 C

5.1 C

5.2 C

5.8 C

142 W/m

0.00 mm

10:25

5.9 C

1002.5 hpa

82 %

8.0 km/h aus 117

14.5 km/h aus SE

3.0 C

4.1 C

4.2 C

5.8 C

139 W/m

0.00 mm

10:30

5.9 C

1002.5 hpa

82 %

6.4 km/h aus 117

9.7 km/h aus E

3.1 C

4.6 C

4.7 C

5.8 C

140 W/m

0.00 mm

10:35

6.1 C

1002.5 hpa

82 %

6.4 km/h aus 115

14.5 km/h aus ESE

3.2 C

4.7 C

4.8 C

5.9 C

155 W/m

0.00 mm

10:40

6.1 C

1002.5 hpa

81 %

6.4 km/h aus 114

9.7 km/h aus E

3.1 C

4.7 C

4.9 C

5.9 C

153 W/m

0.00 mm

10:45

6.3 C

1002.5 hpa

80 %

6.4 km/h aus 115

11.3 km/h aus ENE

3.1 C

4.9 C

5.1 C

6.2 C

244 W/m

0.00 mm

10:50

6.8 C

1002.5 hpa

79 %

6.4 km/h aus 117

16.1 km/h aus E

3.4 C

5.5 C

5.6 C

6.7 C

305 W/m

0.00 mm

10:55

6.8 C

1002.5 hpa

78 %

8.0 km/h aus 116

12.9 km/h aus ESE

3.2 C

5.1 C

5.2 C

6.6 C

213 W/m

0.00 mm

11:00

6.8 C

1002.5 hpa

78 %

8.0 km/h aus 117

17.7 km/h aus ESE

3.2 C

5.1 C

5.2 C

6.6 C

180 W/m

0.00 mm

11:05

6.7 C

1002.5 hpa

78 %

9.7 km/h aus 114

17.7 km/h aus ESE

3.2 C

4.6 C

4.8 C

6.6 C

189 W/m

0.00 mm

11:10

6.9 C

1002.5 hpa

78 %

6.4 km/h aus 115

11.3 km/h aus E

3.4 C

5.7 C

5.8 C

6.8 C

228 W/m

0.00 mm

11:15

6.9 C

1002.4 hpa

77 %

8.0 km/h aus 116

16.1 km/h aus E

3.2 C

5.3 C

5.4 C

6.8 C

167 W/m

0.00 mm

11:20

6.9 C

1002.4 hpa

77 %

6.4 km/h aus 116

16.1 km/h aus ESE

3.2 C

5.7 C

5.8 C

6.8 C

164 W/m

0.00 mm

11:25

7.0 C

1002.4 hpa

78 %

8.0 km/h aus 118

14.5 km/h aus ENE

3.4 C

5.3 C

5.5 C

6.8 C

186 W/m

0.00 mm

11:30

7.3 C

1002.1 hpa

76 %

8.0 km/h aus 114

16.1 km/h aus E

3.3 C

5.6 C

5.8 C

7.1 C

215 W/m

0.00 mm

11:35

7.2 C

1002.1 hpa

77 %

6.4 km/h aus 115

16.1 km/h aus E

3.5 C

6.0 C

6.2 C

7.1 C

224 W/m

0.00 mm

11:40

7.4 C

1002.1 hpa

76 %

8.0 km/h aus 114

16.1 km/h aus E

3.4 C

5.7 C

5.9 C

7.2 C

216 W/m

0.00 mm

11:45

7.4 C

1002.3 hpa

76 %

6.4 km/h aus 117

17.7 km/h aus ESE

3.4 C

6.1 C

6.3 C

7.2 C

193 W/m

0.00 mm

11:50

7.4 C

1002.3 hpa

75 %

9.7 km/h aus 117

19.3 km/h aus ESE

3.2 C

5.4 C

5.6 C

7.2 C

202 W/m

0.00 mm

11:55

7.5 C

1002.3 hpa

76 %

9.7 km/h aus 117

16.1 km/h aus ENE

3.5 C

5.5 C

5.7 C

7.3 C

207 W/m

0.00 mm

12:00

7.7 C

1002.0 hpa

75 %

9.7 km/h aus 117

17.7 km/h aus E

3.6 C

5.8 C

6.0 C

7.5 C

269 W/m

0.00 mm

12:05

8.0 C

1002.0 hpa

75 %

9.7 km/h aus 114

17.7 km/h aus E

3.8 C

6.1 C

6.3 C

7.8 C

323 W/m

0.00 mm

12:10

8.3 C

1002.0 hpa

73 %

11.3 km/h aus 116

19.3 km/h aus E

3.7 C

6.2 C

6.4 C

8.1 C

385 W/m

0.00 mm

12:15

8.3 C

1002.0 hpa

72 %

11.3 km/h aus 117

20.9 km/h aus ENE

3.6 C

6.2 C

6.4 C

8.1 C

326 W/m

0.00 mm

12:20

8.3 C

1002.0 hpa

72 %

9.7 km/h aus 117

22.5 km/h aus ENE

3.5 C

6.4 C

6.7 C

8.1 C

234 W/m

0.00 mm

12:25

8.1 C

1002.0 hpa

73 %

9.7 km/h aus 117

19.3 km/h aus E

3.5 C

6.2 C

6.4 C

7.8 C

224 W/m

0.00 mm

12:30

8.1 C

1002.0 hpa

73 %

8.0 km/h aus 116

17.7 km/h aus E

3.5 C

6.5 C

6.7 C

7.8 C

184 W/m

0.00 mm

12:35

7.9 C

1002.0 hpa

73 %

8.0 km/h aus 115

19.3 km/h aus E

3.3 C

6.3 C

6.5 C

7.7 C

137 W/m

0.00 mm

12:40

7.8 C

1002.0 hpa

76 %

6.4 km/h aus 116

14.5 km/h aus E

3.9 C

6.6 C

6.8 C

7.6 C

138 W/m

0.00 mm

12:45

7.8 C

1002.0 hpa

74 %

6.4 km/h aus 116

11.3 km/h aus E

3.4 C

6.6 C

6.8 C

7.6 C

137 W/m

0.00 mm

12:50

7.8 C

1002.0 hpa

75 %

6.4 km/h aus 117

14.5 km/h aus ESE

3.6 C

6.6 C

6.8 C

7.6 C

139 W/m

0.00 mm

12:55

7.8 C

1002.0 hpa

75 %

4.8 km/h aus 115

9.7 km/h aus SE

3.7 C

7.2 C

7.4 C

7.6 C

141 W/m

0.00 mm

13:00

7.9 C

1002.0 hpa

75 %

3.2 km/h aus 113

6.4 km/h aus ENE

3.7 C

7.7 C

7.9 C

7.7 C

144 W/m

0.00 mm

13:05

7.9 C

1002.0 hpa

75 %

6.4 km/h aus 117

9.7 km/h aus E

3.8 C

6.8 C

7.0 C

7.7 C

157 W/m

0.00 mm

13:10

8.1 C

1002.0 hpa

75 %

6.4 km/h aus 116

11.3 km/h aus NE

3.9 C

6.9 C

7.1 C

7.8 C

165 W/m

0.00 mm

13:15

8.1 C

1001.9 hpa

73 %

9.7 km/h aus 116

16.1 km/h aus ENE

3.5 C

6.2 C

6.4 C

7.8 C

166 W/m

0.00 mm

13:20

8.2 C

1001.9 hpa

74 %

4.8 km/h aus 116

11.3 km/h aus NE

3.8 C

7.6 C

7.8 C

7.9 C

181 W/m

0.00 mm

13:25

8.2 C

1001.9 hpa

74 %

8.0 km/h aus 114

14.5 km/h aus ENE

3.8 C

6.6 C

6.8 C

7.9 C

160 W/m

0.00 mm

13:30

8.1 C

1002.0 hpa

73 %

8.0 km/h aus 115

17.7 km/h aus NE

3.6 C

6.6 C

6.8 C

7.9 C

128 W/m

0.00 mm

13:35

8.0 C

1002.0 hpa

73 %

8.0 km/h aus 118

14.5 km/h aus NE

3.5 C

6.4 C

6.7 C

7.8 C

116 W/m

0.00 mm

13:40

7.9 C

1002.0 hpa

74 %

6.4 km/h aus 117

9.7 km/h aus NE

3.6 C

6.8 C

7.0 C

7.7 C

114 W/m

0.00 mm

13:45

7.9 C

1002.0 hpa

74 %

4.8 km/h aus 117

16.1 km/h aus NE

3.6 C

7.3 C

7.5 C

7.7 C

111 W/m

0.00 mm

13:50

8.1 C

1002.0 hpa

74 %

8.0 km/h aus 116

11.3 km/h aus E

3.7 C

6.5 C

6.7 C

7.8 C

112 W/m

0.00 mm

13:55

8.1 C

1002.0 hpa

73 %

6.4 km/h aus 115

11.3 km/h aus ENE

3.5 C

6.9 C

7.1 C

7.8 C

116 W/m

0.00 mm

14:00

8.1 C

1001.8 hpa

74 %

3.2 km/h aus 114

8.0 km/h aus ENE

3.8 C

7.9 C

8.1 C

7.9 C

124 W/m

0.00 mm

14:05

8.2 C

1001.8 hpa

74 %

9.7 km/h aus 117

17.7 km/h aus E

3.8 C

6.3 C

6.5 C

7.9 C

161 W/m

0.00 mm

14:10

8.3 C

1001.8 hpa

74 %

6.4 km/h aus 116

11.3 km/h aus E

4.0 C

7.3 C

7.4 C

8.2 C

133 W/m

0.00 mm

14:15

8.4 C

1001.9 hpa

73 %

6.4 km/h aus 117

11.3 km/h aus ENE

3.8 C

7.3 C

7.5 C

8.2 C

113 W/m

0.00 mm

14:20

8.4 C

1001.9 hpa

72 %

6.4 km/h aus 116

14.5 km/h aus E

3.7 C

7.3 C

7.6 C

8.2 C

113 W/m

0.00 mm

14:25

8.6 C

1001.9 hpa

72 %

6.4 km/h aus 114

17.7 km/h aus ESE

3.8 C

7.6 C

7.8 C

8.4 C

116 W/m

0.00 mm

14:30

8.7 C

1001.9 hpa

72 %

8.0 km/h aus 116

14.5 km/h aus ESE

4.0 C

7.3 C

7.5 C

8.5 C

116 W/m

0.00 mm

14:35

8.7 C

1001.9 hpa

72 %

6.4 km/h aus 118

17.7 km/h aus ESE

3.9 C

7.6 C

7.8 C

8.4 C

99 W/m

0.00 mm

14:40

8.6 C

1001.9 hpa

71 %

8.0 km/h aus 116

17.7 km/h aus ENE

3.6 C

7.1 C

7.3 C

8.3 C

83 W/m

0.00 mm

14:45

8.4 C

1001.6 hpa

71 %

8.0 km/h aus 117

16.1 km/h aus ENE

3.5 C

6.9 C

7.2 C

8.2 C

78 W/m

0.00 mm

14:50

8.4 C

1001.6 hpa

71 %

8.0 km/h aus 115

16.1 km/h aus E

3.5 C

6.9 C

7.2 C

8.2 C

69 W/m

0.00 mm

14:55

8.4 C

1001.6 hpa

72 %

9.7 km/h aus 115

16.1 km/h aus ENE

3.6 C

6.6 C

6.8 C

8.2 C

57 W/m

0.00 mm

15:00

8.3 C

1002.0 hpa

72 %

11.3 km/h aus 116

19.3 km/h aus ENE

3.5 C

6.2 C

6.4 C

8.1 C

51 W/m

0.00 mm

15:05

8.2 C

1002.0 hpa

72 %

6.4 km/h aus 117

9.7 km/h aus E

3.5 C

7.1 C

7.3 C

8.0 C

47 W/m

0.00 mm

15:10

8.1 C

1002.0 hpa

73 %

4.8 km/h aus 117

8.0 km/h aus E

3.5 C

7.4 C

7.7 C

7.8 C

42 W/m

0.00 mm

15:15

7.9 C

1002.0 hpa

73 %

4.8 km/h aus 117

12.9 km/h aus NE

3.3 C

7.2 C

7.4 C

7.7 C

37 W/m

0.00 mm

15:20

7.8 C

1002.0 hpa

74 %

6.4 km/h aus 114

14.5 km/h aus ENE

3.4 C

6.6 C

6.8 C

7.6 C

34 W/m

0.00 mm

15:25

7.7 C

1002.0 hpa

74 %

9.7 km/h aus 115

19.3 km/h aus NE

3.4 C

5.8 C

6.0 C

7.5 C

32 W/m

0.00 mm

15:30

7.7 C

1002.0 hpa

74 %

6.4 km/h aus 117

16.1 km/h aus NE

3.3 C

6.4 C

6.7 C

7.4 C

32 W/m

0.00 mm

15:35

7.7 C

1002.0 hpa

74 %

8.0 km/h aus 117

19.3 km/h aus NNE

3.3 C

6.1 C

6.3 C

7.4 C

30 W/m

0.00 mm

15:40

7.6 C

1002.0 hpa

74 %

8.0 km/h aus 118

16.1 km/h aus ENE

3.3 C

5.9 C

6.2 C

7.4 C

30 W/m

0.00 mm

15:45

7.6 C

1002.0 hpa

74 %

8.0 km/h aus 115

16.1 km/h aus NE

3.2 C

5.9 C

6.1 C

7.3 C

27 W/m

0.00 mm

15:50

7.4 C

1002.0 hpa

75 %

6.4 km/h aus 114

11.3 km/h aus NE

3.3 C

6.2 C

6.4 C

7.2 C

23 W/m

0.00 mm

15:55

7.4 C

1002.0 hpa

76 %

8.0 km/h aus 116

14.5 km/h aus NNE

3.4 C

5.7 C

5.9 C

7.2 C

19 W/m

0.00 mm

16:00

7.3 C

1002.0 hpa

76 %

8.0 km/h aus 117

16.1 km/h aus NE

3.3 C

5.6 C

5.8 C

7.1 C

14 W/m

0.00 mm

16:05

7.2 C

1002.0 hpa

77 %

9.7 km/h aus 117

17.7 km/h aus N

3.5 C

5.2 C

5.4 C

7.1 C

11 W/m

0.00 mm

16:10

7.1 C

1002.0 hpa

77 %

8.0 km/h aus 117

17.7 km/h aus ENE

3.3 C

5.4 C

5.6 C

6.9 C

8 W/m

0.00 mm

16:15

7.0 C

1002.5 hpa

78 %

9.7 km/h aus 116

16.1 km/h aus ENE

3.4 C

4.9 C

5.1 C

6.8 C

6 W/m

0.00 mm

16:20

6.9 C

1002.5 hpa

78 %

9.7 km/h aus 115

16.1 km/h aus NE

3.4 C

4.9 C

5.1 C

6.8 C

3 W/m

0.00 mm

16:25

6.8 C

1002.5 hpa

79 %

8.0 km/h aus 114

17.7 km/h aus ENE

3.4 C

5.2 C

5.3 C

6.7 C

0 W/m

0.00 mm

16:30

6.8 C

1002.5 hpa

79 %

6.4 km/h aus 117

12.9 km/h aus ENE

3.4 C

5.5 C

5.6 C

6.7 C

0 W/m

0.00 mm

16:35

6.7 C

1002.5 hpa

79 %

8.0 km/h aus 117

16.1 km/h aus NE

3.3 C

5.0 C

5.1 C

6.6 C

0 W/m

0.00 mm

16:40

6.6 C

1002.5 hpa

80 %

8.0 km/h aus 117

14.5 km/h aus NE

3.4 C

4.9 C

5.0 C

6.4 C

0 W/m

0.00 mm

16:45

6.5 C

1002.5 hpa

80 %

8.0 km/h aus 118

19.3 km/h aus NE

3.3 C

4.8 C

4.9 C

6.4 C

0 W/m

0.00 mm

16:50

6.4 C

1002.5 hpa

80 %

8.0 km/h aus 115

19.3 km/h aus ENE

3.2 C

4.7 C

4.8 C

6.3 C

0 W/m

0.00 mm

16:55

6.4 C

1002.5 hpa

81 %

8.0 km/h aus 110

16.1 km/h aus NE

3.4 C

4.7 C

4.8 C

6.3 C

0 W/m

0.00 mm

17:00

6.3 C

1002.6 hpa

81 %

8.0 km/h aus 117

14.5 km/h aus NNE

3.3 C

4.6 C

4.7 C

6.2 C

0 W/m

0.00 mm

17:05

6.3 C

1002.6 hpa

82 %

8.0 km/h aus 116

20.9 km/h aus NE

3.4 C

4.6 C

4.7 C

6.2 C

0 W/m

0.00 mm

17:10

6.2 C

1002.6 hpa

82 %

8.0 km/h aus 116

14.5 km/h aus NNE

3.4 C

4.4 C

4.6 C

6.1 C

0 W/m

0.00 mm

17:15

6.2 C

1002.7 hpa

83 %

9.7 km/h aus 117

22.5 km/h aus ENE

3.5 C

4.0 C

4.1 C

6.1 C

0 W/m

0.00 mm

17:20

6.2 C

1002.7 hpa

83 %

11.3 km/h aus 114

22.5 km/h aus E

3.5 C

3.7 C

3.8 C

6.1 C

0 W/m

0.00 mm

17:25

6.2 C

1002.7 hpa

83 %

9.7 km/h aus 114

20.9 km/h aus NE

3.5 C

4.0 C

4.1 C

6.1 C

0 W/m

0.00 mm

17:30

6.2 C

1002.8 hpa

84 %

9.7 km/h aus 117

20.9 km/h aus NE

3.7 C

4.1 C

4.1 C

6.1 C

0 W/m

0.00 mm

17:35

6.1 C

1002.8 hpa

84 %

8.0 km/h aus 117

19.3 km/h aus NE

3.6 C

4.4 C

4.4 C

6.1 C

0 W/m

0.00 mm

17:40

6.1 C

1002.8 hpa

84 %

6.4 km/h aus 117

14.5 km/h aus ENE

3.6 C

4.8 C

4.9 C

6.1 C

0 W/m

0.00 mm

17:45

6.1 C

1003.0 hpa

84 %

8.0 km/h aus 117

19.3 km/h aus ENE

3.6 C

4.4 C

4.4 C

6.1 C

0 W/m

0.00 mm

17:50

6.1 C

1003.0 hpa

84 %

8.0 km/h aus 116

16.1 km/h aus NE

3.6 C

4.4 C

4.4 C

6.1 C

0 W/m

0.00 mm

17:55

6.1 C

1003.0 hpa

84 %

11.3 km/h aus 115

20.9 km/h aus ENE

3.6 C

3.7 C

3.8 C

6.1 C

0 W/m

0.00 mm

18:00

6.1 C

1003.0 hpa

84 %

11.3 km/h aus 115

19.3 km/h aus NE

3.6 C

3.7 C

3.7 C

6.0 C

0 W/m

0.00 mm

18:05

6.1 C

1003.0 hpa

84 %

12.9 km/h aus 117

22.5 km/h aus E

3.6 C

3.3 C

3.4 C

6.0 C

0 W/m

0.00 mm

18:10

6.0 C

1003.0 hpa

84 %

12.9 km/h aus 117

25.7 km/h aus ENE

3.5 C

3.2 C

3.3 C

5.9 C

0 W/m

0.00 mm

18:15

5.9 C

1002.8 hpa

84 %

12.9 km/h aus 117

20.9 km/h aus ENE

3.4 C

3.1 C

3.2 C

5.8 C

0 W/m

0.00 mm

18:20

5.9 C

1002.8 hpa

83 %

14.5 km/h aus 116

25.7 km/h aus ENE

3.2 C

2.8 C

2.9 C

5.8 C

0 W/m

0.00 mm

18:25

5.9 C

1002.8 hpa

83 %

14.5 km/h aus 114

22.5 km/h aus E

3.2 C

2.8 C

2.9 C

5.8 C

0 W/m

0.00 mm

18:30

5.8 C

1003.1 hpa

83 %

11.3 km/h aus 114

19.3 km/h aus E

3.2 C

3.3 C

3.4 C

5.7 C

0 W/m

0.00 mm

18:35

5.8 C

1003.1 hpa

83 %

11.3 km/h aus 117

22.5 km/h aus NE

3.1 C

3.2 C

3.3 C

5.7 C

0 W/m

0.00 mm

18:40

5.7 C

1003.1 hpa

83 %

9.7 km/h aus 117

20.9 km/h aus E

3.1 C

3.5 C

3.6 C

5.6 C

0 W/m

0.00 mm

18:45

5.7 C

1003.1 hpa

83 %

9.7 km/h aus 117

20.9 km/h aus E

3.0 C

3.4 C

3.5 C

5.6 C

0 W/m

0.00 mm

18:50

5.6 C

1003.1 hpa

83 %

8.0 km/h aus 117

19.3 km/h aus ENE

2.9 C

3.7 C

3.8 C

5.4 C

0 W/m

0.00 mm

18:55

5.5 C

1003.1 hpa

83 %

9.7 km/h aus 115

20.9 km/h aus NE

2.8 C

3.2 C

3.3 C

5.4 C

0 W/m

0.00 mm

19:00

5.4 C

1003.1 hpa

83 %

11.3 km/h aus 114

17.7 km/h aus NE

2.7 C

2.7 C

2.8 C

5.3 C

0 W/m

0.00 mm

19:05

5.3 C

1003.1 hpa

84 %

8.0 km/h aus 116

17.7 km/h aus NE

2.8 C

3.3 C

3.4 C

5.2 C

0 W/m

0.00 mm

19:10

5.2 C

1003.1 hpa

84 %

9.7 km/h aus 116

19.3 km/h aus ENE

2.7 C

2.9 C

3.0 C

5.1 C

0 W/m

0.00 mm

19:15

5.2 C

1003.1 hpa

84 %

8.0 km/h aus 117

16.1 km/h aus E

2.7 C

3.2 C

3.3 C

5.1 C

0 W/m

0.00 mm

19:20

5.1 C

1003.1 hpa

84 %

8.0 km/h aus 117

17.7 km/h aus E

2.6 C

3.1 C

3.2 C

5.0 C

0 W/m

0.00 mm

19:25

5.1 C

1003.1 hpa

84 %

6.4 km/h aus 117

16.1 km/h aus E

2.6 C

3.6 C

3.7 C

4.9 C

0 W/m

0.00 mm

19:30

5.0 C

1003.2 hpa

84 %

8.0 km/h aus 114

16.1 km/h aus NE

2.5 C

3.0 C

3.1 C

4.9 C

0 W/m

0.00 mm

19:35

4.9 C

1003.2 hpa

84 %

6.4 km/h aus 114

14.5 km/h aus ENE

2.5 C

3.4 C

3.6 C

4.8 C

0 W/m

0.00 mm

19:40

4.9 C

1003.2 hpa

84 %

8.0 km/h aus 117

16.1 km/h aus NE

2.5 C

2.9 C

3.1 C

4.8 C

0 W/m

0.00 mm

19:45

4.8 C

1003.3 hpa

84 %

6.4 km/h aus 117

14.5 km/h aus NNE

2.4 C

3.3 C

3.4 C

4.7 C

0 W/m

0.00 mm

19:50

4.8 C

1003.3 hpa

84 %

8.0 km/h aus 117

16.1 km/h aus NE

2.3 C

2.8 C

2.9 C

4.7 C

0 W/m

0.00 mm

19:55

4.7 C

1003.3 hpa

84 %

6.4 km/h aus 117

16.1 km/h aus E

2.2 C

3.2 C

3.3 C

4.6 C

0 W/m

0.00 mm

20:00

4.6 C

1003.3 hpa

84 %

6.4 km/h aus 117

11.3 km/h aus ENE

2.1 C

3.1 C

3.2 C

4.5 C

0 W/m

0.00 mm

20:05

4.6 C

1003.3 hpa

84 %

4.8 km/h aus 113

11.3 km/h aus ENE

2.1 C

3.6 C

3.7 C

4.4 C

0 W/m

0.00 mm

20:10

4.5 C

1003.3 hpa

85 %

6.4 km/h aus 114

14.5 km/h aus ENE

2.2 C

2.9 C

3.0 C

4.4 C

0 W/m

0.00 mm

20:15

4.4 C

1003.2 hpa

85 %

4.8 km/h aus 117

11.3 km/h aus NE

2.1 C

3.4 C

3.6 C

4.3 C

0 W/m

0.00 mm

20:20

4.4 C

1003.2 hpa

85 %

4.8 km/h aus 117

9.7 km/h aus NE

2.1 C

3.4 C

3.6 C

4.3 C

0 W/m

0.00 mm

20:25

4.4 C

1003.2 hpa

85 %

4.8 km/h aus 117

9.7 km/h aus ENE

2.1 C

3.4 C

3.5 C

4.3 C

0 W/m

0.00 mm

20:30

4.3 C

1003.1 hpa

85 %

4.8 km/h aus 117

8.0 km/h aus NE

2.0 C

3.3 C

3.4 C

4.2 C

0 W/m

0.00 mm

20:35

4.2 C

1003.1 hpa

85 %

4.8 km/h aus 114

8.0 km/h aus NNE

1.9 C

3.2 C

3.3 C

4.1 C

0 W/m

0.00 mm

20:40

4.2 C

1003.1 hpa

85 %

3.2 km/h aus 113

8.0 km/h aus NNE

1.9 C

3.9 C

4.0 C

4.1 C

0 W/m

0.00 mm

20:45

4.1 C

1003.2 hpa

85 %

3.2 km/h aus 116

11.3 km/h aus NE

1.8 C

3.8 C

3.9 C

3.9 C

0 W/m

0.00 mm

20:50

4.0 C

1003.2 hpa

85 %

4.8 km/h aus 117

9.7 km/h aus NNW

1.7 C

2.9 C

3.1 C

3.9 C

0 W/m

0.00 mm

20:55

3.9 C

1003.2 hpa

86 %

4.8 km/h aus 117

16.1 km/h aus NE

1.8 C

2.8 C

2.9 C

3.8 C

0 W/m

0.00 mm

21:00

3.9 C

1003.3 hpa

86 %

6.4 km/h aus 116

12.9 km/h aus NE

1.8 C

2.3 C

2.4 C

3.8 C

0 W/m

0.00 mm

21:05

3.9 C

1003.3 hpa

86 %

6.4 km/h aus 118

16.1 km/h aus NE

1.8 C

2.3 C

2.4 C

3.8 C

0 W/m

0.00 mm

21:10

4.0 C

1003.3 hpa

87 %

6.4 km/h aus 116

11.3 km/h aus NE

2.0 C

2.3 C

2.4 C

3.9 C

0 W/m

0.00 mm

21:15

4.0 C

1003.4 hpa

87 %

4.8 km/h aus 113

8.0 km/h aus NE

2.0 C

2.9 C

3.1 C

3.9 C

0 W/m

0.00 mm

21:20

4.0 C

1003.4 hpa

87 %

4.8 km/h aus 114

9.7 km/h aus NE

2.0 C

2.9 C

3.1 C

3.9 C

0 W/m

0.00 mm

21:25

4.0 C

1003.4 hpa

87 %

6.4 km/h aus 116

11.3 km/h aus NE

2.0 C

2.3 C

2.4 C

3.9 C

0 W/m

0.00 mm

21:30

3.9 C

1003.2 hpa

87 %

3.2 km/h aus 116

8.0 km/h aus NNE

2.0 C

3.7 C

3.8 C

3.8 C

0 W/m

0.00 mm

21:35

3.9 C

1003.2 hpa

87 %

6.4 km/h aus 117

14.5 km/h aus NE

2.0 C

2.3 C

2.4 C

3.8 C

0 W/m

0.00 mm

21:40

3.9 C

1003.2 hpa

87 %

6.4 km/h aus 117

11.3 km/h aus NE

1.9 C

2.2 C

2.3 C

3.8 C

0 W/m

0.00 mm

21:45

3.9 C

1003.1 hpa

87 %

6.4 km/h aus 116

12.9 km/h aus ENE

1.9 C

2.2 C

2.3 C

3.8 C

0 W/m

0.00 mm

21:50

3.8 C

1003.1 hpa

87 %

8.0 km/h aus 113

14.5 km/h aus NE

1.9 C

1.7 C

1.8 C

3.7 C

0 W/m

0.00 mm

21:55

3.8 C

1003.1 hpa

87 %

4.8 km/h aus 114

9.7 km/h aus NNE

1.9 C

2.7 C

2.8 C

3.7 C

0 W/m

0.00 mm

22:00

3.8 C

1003.1 hpa

87 %

6.4 km/h aus 117

17.7 km/h aus NNE

1.9 C

2.1 C

2.2 C

3.7 C

0 W/m

0.00 mm

22:05

3.8 C

1003.1 hpa

87 %

4.8 km/h aus 116

9.7 km/h aus N

1.8 C

2.7 C

2.8 C

3.7 C

0 W/m

0.00 mm

22:10

3.8 C

1003.1 hpa

88 %

6.4 km/h aus 118

14.5 km/h aus N

2.0 C

2.1 C

2.2 C

3.7 C

0 W/m

0.00 mm

22:15

3.7 C

1002.5 hpa

88 %

6.4 km/h aus 116

11.3 km/h aus NNE

1.9 C

2.1 C

2.1 C

3.7 C

0 W/m

0.00 mm

22:20

3.7 C

1002.5 hpa

88 %

8.0 km/h aus 116

19.3 km/h aus N

1.9 C

1.5 C

1.6 C

3.6 C

0 W/m

0.00 mm

22:25

3.7 C

1002.5 hpa

88 %

8.0 km/h aus 113

20.9 km/h aus NE

1.9 C

1.6 C

1.6 C

3.7 C

0 W/m

0.00 mm

22:30

3.8 C

1002.3 hpa

88 %

11.3 km/h aus 114

22.5 km/h aus NNE

2.0 C

0.9 C

0.9 C

3.7 C

0 W/m

0.00 mm

22:35

3.8 C

1002.3 hpa

88 %

9.7 km/h aus 116

19.3 km/h aus ENE

2.0 C

1.2 C

1.3 C

3.7 C

0 W/m

0.00 mm

22:40

3.8 C

1002.3 hpa

88 %

11.3 km/h aus 116

20.9 km/h aus ENE

2.0 C

0.9 C

0.9 C

3.7 C

0 W/m

0.00 mm

22:45

3.7 C

1002.5 hpa

88 %

8.0 km/h aus 117

25.7 km/h aus NNE

1.9 C

1.6 C

1.6 C

3.7 C

0 W/m

0.00 mm

22:50

3.7 C

1002.5 hpa

88 %

12.9 km/h aus 116

25.7 km/h aus NE

1.9 C

0.5 C

0.6 C

3.7 C

0 W/m

0.00 mm

22:55

3.7 C

1002.5 hpa

88 %

14.5 km/h aus 117

27.4 km/h aus NNE

1.9 C

0.2 C

0.3 C

3.7 C

0 W/m

0.00 mm

23:00

3.7 C

1002.5 hpa

88 %

12.9 km/h aus 113

24.1 km/h aus NNE

1.9 C

0.4 C

0.5 C

3.6 C

0 W/m

0.00 mm

23:05

3.7 C

1002.5 hpa

87 %

12.9 km/h aus 115

24.1 km/h aus NNE

1.7 C

0.4 C

0.5 C

3.6 C

0 W/m

0.00 mm

23:10

3.6 C

1002.5 hpa

87 %

12.9 km/h aus 117

27.4 km/h aus ENE

1.6 C

0.3 C

0.4 C

3.5 C

0 W/m

0.00 mm

23:15

3.6 C

1002.2 hpa

87 %

9.7 km/h aus 118

19.3 km/h aus NE

1.6 C

0.9 C

1.1 C

3.4 C

0 W/m

0.00 mm

23:20

3.5 C

1002.2 hpa

87 %

8.0 km/h aus 117

17.7 km/h aus NE

1.5 C

1.3 C

1.4 C

3.4 C

0 W/m

0.00 mm

23:25

3.4 C

1002.2 hpa

87 %

8.0 km/h aus 117

20.9 km/h aus NE

1.5 C

1.2 C

1.3 C

3.3 C

0 W/m

0.00 mm

23:30

3.4 C

1002.4 hpa

87 %

11.3 km/h aus 117

19.3 km/h aus NE

1.4 C

0.3 C

0.4 C

3.3 C

0 W/m

0.00 mm

23:35

3.4 C

1002.4 hpa

87 %

11.3 km/h aus 114

20.9 km/h aus NNE

1.4 C

0.3 C

0.4 C

3.3 C

0 W/m

0.00 mm

23:40

3.4 C

1002.4 hpa

88 %

9.7 km/h aus 114

17.7 km/h aus ENE

1.6 C

0.8 C

0.8 C

3.3 C

0 W/m

0.00 mm

23:45

3.4 C

1002.1 hpa

87 %

9.7 km/h aus 116

19.3 km/h aus ENE

1.4 C

0.7 C

0.8 C

3.3 C

0 W/m

0.00 mm

23:50

3.3 C

1002.1 hpa

87 %

9.7 km/h aus 117

20.9 km/h aus NE

1.4 C

0.7 C

0.8 C

3.2 C

0 W/m

0.00 mm

23:55

3.3 C

1002.1 hpa

88 %

11.3 km/h aus 117

24.1 km/h aus NNE

1.5 C

0.3 C

0.4 C

3.3 C

0 W/m

0.00 mm